• In Czech Republic
  • List of Countries
  • For 7 days
  • Water Temperature
  • Satellite Maps
  • Weather Map
  • Weather Widgets
  • user-avatar
    Login

    Hourly Weather Medyka

    Today, 23 September, Sunday

    Time Temperature Precipitation Wind Pressure Humidity
    00:00 +9°C° 0 mm 3 mps 747 mmHg 82%
    01:00 +9°C° 0 mm 3 mps 747 mmHg 81%
    02:00 +10°C° 0 mm 3 mps 747 mmHg 81%
    03:00 +9°C° 0 mm 3 mps 747 mmHg 81%
    04:00 +9°C° 0 mm 3 mps 747 mmHg 81%
    05:00 +9°C° 0 mm 2 mps 747 mmHg 82%
    06:00 +10°C° 0 mm 3 mps 747 mmHg 80%
    07:00 +11°C° 0 mm 3 mps 747 mmHg 78%
    08:00 +11°C° 0 mm 3 mps 746 mmHg 77%
    09:00 +13°C° 0 mm 4 mps 746 mmHg 70%
    10:00 +14°C° 0 mm 4 mps 746 mmHg 63%
    11:00 +17°C° 0 mm 4 mps 746 mmHg 55%
    12:00 +17°C° 0 mm 5 mps 746 mmHg 54%
    13:00 +17°C° 0 mm 5 mps 745 mmHg 53%
    14:00 +19°C° 0 mm 5 mps 745 mmHg 51%
    15:00 +18°C° 0 mm 4 mps 744 mmHg 55%
    16:00 +18°C° 0 mm 4 mps 744 mmHg 58%
    17:00 +17°C° 0 mm 3 mps 744 mmHg 62%
    18:00 +17°C° 0.1 mm 3 mps 743 mmHg 64%
    19:00 +15°C° 0.1 mm 4 mps 742 mmHg 67%
    20:00 +14°C° 0.1 mm 4 mps 742 mmHg 69%
    21:00 +15°C° 0.1 mm 5 mps 741 mmHg 66%
    22:00 +15°C° 0.1 mm 6 mps 739 mmHg 62%
    23:00 +16°C° 0.1 mm 7 mps 738 mmHg 59%

    Tomorrow, 24 September, Monday

    Time Temperature Precipitation Wind Pressure Humidity
    00:00 +16°C° 0.7 mm 8 mps 737 mmHg 64%
    01:00 +16°C° 0.7 mm 9 mps 736 mmHg 69%
    02:00 +16°C° 0.7 mm 9 mps 735 mmHg 74%
    03:00 +16°C° 3 mm 9 mps 735 mmHg 79%
    04:00 +15°C° 3 mm 9 mps 735 mmHg 83%
    05:00 +15°C° 3 mm 8 mps 734 mmHg 88%
    06:00 +13°C° 1.4 mm 8 mps 736 mmHg 88%
    07:00 +11°C° 1.4 mm 8 mps 737 mmHg 88%
    08:00 +10°C° 1.4 mm 9 mps 738 mmHg 88%
    09:00 +10°C° 0.4 mm 8 mps 740 mmHg 86%
    10:00 +10°C° 0.4 mm 8 mps 741 mmHg 84%
    11:00 +9°C° 0.4 mm 7 mps 743 mmHg 82%
    12:00 +10°C° 0.2 mm 8 mps 743 mmHg 76%
    13:00 +11°C° 0.2 mm 8 mps 743 mmHg 71%
    14:00 +12°C° 0.2 mm 9 mps 744 mmHg 66%
    15:00 +11°C° 0.1 mm 8 mps 744 mmHg 64%
    16:00 +11°C° 0.1 mm 8 mps 745 mmHg 62%
    17:00 +10°C° 0.1 mm 7 mps 745 mmHg 61%
    18:00 +9°C° 0 mm 7 mps 746 mmHg 62%
    19:00 +8°C° 0 mm 6 mps 746 mmHg 64%
    20:00 +7°C° 0 mm 6 mps 747 mmHg 66%
    21:00 +7°C° 0 mm 6 mps 747 mmHg 66%
    22:00 +7°C° 0 mm 6 mps 747 mmHg 65%
    23:00 +5°C° 0 mm 6 mps 747 mmHg 65%

    Day after tomorrow, 25 September, Tuesday

    Time Temperature Precipitation Wind Pressure Humidity
    00:00 +5°C° 0.1 mm 6 mps 747 mmHg 70%
    01:00 +5°C° 0.1 mm 6 mps 747 mmHg 75%
    02:00 +5°C° 0.1 mm 6 mps 748 mmHg 80%
    03:00 +5°C° 0.3 mm 7 mps 748 mmHg 81%
    04:00 +5°C° 0.3 mm 7 mps 749 mmHg 83%
    05:00 +5°C° 0.3 mm 7 mps 749 mmHg 84%
    06:00 +5°C° 0 mm 7 mps 750 mmHg 83%
    07:00 +5°C° 0 mm 7 mps 751 mmHg 82%
    08:00 +4°C° 0 mm 6 mps 752 mmHg 81%
    09:00 +6°C° 0.1 mm 7 mps 753 mmHg 73%
    10:00 +8°C° 0.1 mm 7 mps 753 mmHg 65%
    11:00 +9°C° 0.1 mm 7 mps 754 mmHg 57%
    12:00 +9°C° 0.1 mm 7 mps 754 mmHg 54%
    13:00 +10°C° 0.1 mm 7 mps 754 mmHg 52%
    14:00 +10°C° 0.1 mm 8 mps 754 mmHg 49%
    15:00 +10°C° 0.1 mm 7 mps 755 mmHg 52%
    16:00 +9°C° 0.1 mm 6 mps 755 mmHg 56%
    17:00 +8°C° 0.1 mm 5 mps 755 mmHg 59%
    18:00 +7°C° 0 mm 5 mps 756 mmHg 62%
    19:00 +6°C° 0 mm 4 mps 756 mmHg 65%
    20:00 +5°C° 0 mm 3 mps 757 mmHg 69%
    21:00 +5°C° 0 mm 3 mps 757 mmHg 70%
    22:00 +4°C° 0 mm 3 mps 758 mmHg 72%
    23:00 +4°C° 0 mm 3 mps 758 mmHg 73%

    26 September, Wednesday

    Time Temperature Precipitation Wind Pressure Humidity
    00:00 +3°C° 0 mm 3 mps 758 mmHg 75%
    01:00 +3°C° 0 mm 3 mps 759 mmHg 77%
    02:00 +4°C° 0 mm 2 mps 759 mmHg 78%
    03:00 +3°C° 0 mm 2 mps 759 mmHg 80%
    04:00 +3°C° 0 mm 2 mps 759 mmHg 82%
    05:00 +3°C° 0 mm 2 mps 760 mmHg 84%
    06:00 +3°C° 0 mm 2 mps 760 mmHg 81%
    07:00 +4°C° 0 mm 2 mps 760 mmHg 77%
    08:00 +5°C° 0 mm 2 mps 760 mmHg 74%
    09:00 +7°C° 0 mm 2 mps 760 mmHg 67%
    10:00 +9°C° 0 mm 2 mps 760 mmHg 60%
    11:00 +12°C° 0 mm 2 mps 760 mmHg 52%
    12:00 +12°C° 0 mm 2 mps 759 mmHg 49%
    13:00 +13°C° 0 mm 2 mps 759 mmHg 46%
    14:00 +14°C° 0 mm 2 mps 758 mmHg 42%
    15:00 +13°C° 0 mm 2 mps 758 mmHg 46%
    16:00 +13°C° 0 mm 1 mps 757 mmHg 50%
    17:00 +13°C° 0 mm 1 mps 757 mmHg 53%
    18:00 +12°C° 0 mm 2 mps 757 mmHg 54%
    19:00 +9°C° 0 mm 2 mps 757 mmHg 55%
    20:00 +8°C° 0 mm 2 mps 757 mmHg 56%
    21:00 +8°C° 0 mm 3 mps 756 mmHg 55%
    22:00 +9°C° 0 mm 3 mps 756 mmHg 54%
    23:00 +9°C° 0 mm 3 mps 756 mmHg 53%

    27 September, Thursday

    Time Temperature Precipitation Wind Pressure Humidity
    00:00 +9°C° 0 mm 3 mps 756 mmHg 55%
    01:00 +9°C° 0 mm 3 mps 755 mmHg 58%
    02:00 +9°C° 0 mm 3 mps 755 mmHg 61%
    03:00 +9°C° 0.1 mm 3 mps 755 mmHg 62%
    04:00 +8°C° 0.1 mm 4 mps 754 mmHg 62%
    05:00 +8°C° 0.1 mm 4 mps 754 mmHg 63%
    06:00 +8°C° 0 mm 4 mps 754 mmHg 61%
    07:00 +8°C° 0 mm 5 mps 754 mmHg 60%
    08:00 +8°C° 0 mm 5 mps 753 mmHg 59%
    09:00 +10°C° 0 mm 5 mps 753 mmHg 54%
    10:00 +13°C° 0 mm 6 mps 753 mmHg 50%
    11:00 +15°C° 0 mm 6 mps 753 mmHg 45%
    12:00 +16°C° 0 mm 6 mps 753 mmHg 45%
    13:00 +17°C° 0 mm 6 mps 752 mmHg 44%
    14:00 +19°C° 0 mm 6 mps 752 mmHg 44%
    15:00 +17°C° 0 mm 5 mps 752 mmHg 48%
    16:00 +17°C° 0 mm 5 mps 751 mmHg 51%
    17:00 +17°C° 0 mm 4 mps 751 mmHg 55%
    18:00 +15°C° 0 mm 4 mps 751 mmHg 57%
    19:00 +13°C° 0 mm 4 mps 752 mmHg 58%
    20:00 +12°C° 0 mm 4 mps 752 mmHg 60%
    21:00 +11°C° 0 mm 3 mps 752 mmHg 61%
    22:00 +11°C° 0 mm 3 mps 752 mmHg 61%
    23:00 +11°C° 0 mm 3 mps 752 mmHg 62%

    28 September, Friday

    Time Temperature Precipitation Wind Pressure Humidity
    00:00 +10°C° 0 mm 3 mps 752 mmHg 62%
    01:00 +10°C° 0 mm 3 mps 751 mmHg 62%
    02:00 +10°C° 0 mm 3 mps 751 mmHg 63%
    03:00 +10°C° 0 mm 3 mps 751 mmHg 63%
    04:00 +10°C° 0 mm 3 mps 751 mmHg 62%
    05:00 +9°C° 0 mm 3 mps 750 mmHg 62%
    06:00 +10°C° 0 mm 3 mps 750 mmHg 62%
    07:00 +11°C° 0 mm 3 mps 750 mmHg 62%
    08:00 +12°C° 0 mm 3 mps 750 mmHg 62%
    09:00 +14°C° 0 mm 3 mps 750 mmHg 57%
    10:00 +17°C° 0 mm 3 mps 749 mmHg 53%
    11:00 +19°C° 0 mm 3 mps 749 mmHg 48%
    12:00 +20°C° 0 mm 3 mps 749 mmHg 47%
    13:00 +21°C° 0 mm 3 mps 748 mmHg 45%
    14:00 +21°C° 0 mm 3 mps 748 mmHg 43%
    15:00 +21°C° 0 mm 3 mps 747 mmHg 47%
    16:00 +20°C° 0 mm 3 mps 747 mmHg 51%
    17:00 +19°C° 0 mm 2 mps 746 mmHg 55%
    18:00 +17°C° 0 mm 2 mps 746 mmHg 58%
    19:00 +15°C° 0 mm 2 mps 746 mmHg 60%
    20:00 +13°C° 0 mm 2 mps 746 mmHg 62%
    21:00 +13°C° 0 mm 2 mps 746 mmHg 61%
    22:00 +12°C° 0 mm 2 mps 746 mmHg 61%
    23:00 +12°C° 0 mm 2 mps 746 mmHg 60%
    Show more